Date,TemperatureHighF,TemperatureAvgF,TemperatureLowF,DewpointHighF,DewpointAvgF,DewpointLowF,HumidityHigh,HumidityAvg,HumidityLow,PressureMaxIn,PressureMinIn,WindSpeedMaxMPH,WindSpeedAvgMPH,GustSpeedMaxMPH,PrecipitationSumIn
2013-1-1,36.7,30.7,23.8,35.2,29.1,21.5,95,94,91,30.23,30.01,10,3,10,0.00
2013-1-2,39.2,26.4,19.3,27.1,20.9,17.2,93,81,49,30.24,30.15,8,2,8,0.01
2013-1-3,49.0,30.6,16.4,33.0,22.8,13.3,93,75,44,30.41,30.23,7,1,7,0.01
2013-1-4,52.4,34.0,17.1,28.4,22.6,14.0,92,67,34,30.43,30.30,11,2,11,0.00
2013-1-5,44.3,36.8,28.1,34.0,28.7,22.1,93,73,63,30.30,30.15,14,4,16,0.00
2013-1-6,51.5,33.4,21.1,30.9,23.2,15.4,92,69,36,30.35,30.21,10,2,11,0.00
2013-1-7,54.4,37.3,20.9,29.3,24.4,16.2,84,62,37,30.31,30.09,14,4,15,0.00
2013-1-8,59.4,42.9,27.0,45.3,34.3,20.7,95,73,47,30.19,30.03,14,4,14,0.44
2013-1-9,54.4,49.7,46.4,46.4,43.0,37.3,96,79,57,30.32,30.18,24,6,24,0.04
2013-1-10,59.0,50.2,45.7,53.9,46.6,38.8,93,88,64,30.19,29.80,22,8,22,0.17
2013-1-11,67.3,55.6,45.4,46.7,45.0,42.9,92,69,45,29.87,29.72,25,10,25,0.00
2013-1-12,58.5,42.6,27.4,49.9,35.2,24.9,92,77,43,29.96,29.79,18,6,18,0.73
2013-1-13,32.0,22.4,15.5,24.8,18.2,12.4,91,84,68,30.32,29.95,12,4,12,0.00
2013-1-14,67.3,25.0,14.6,53.3,17.7,11.4,89,75,36,30.34,30.28,6,2,8,0.00
2013-1-15,36.7,24.6,15.3,22.6,16.6,12.0,88,74,40,30.28,30.12,8,2,8,0.01
2013-1-16,46.8,28.1,13.3,23.6,17.6,10.4,91,68,36,30.17,30.08,10,2,10,0.02
2013-1-17,52.2,36.0,23.2,33.1,24.9,16.5,85,65,42,30.45,30.17,13,2,13,0.00
2013-1-18,58.7,41.2,22.7,33.3,27.4,18.3,90,61,33,30.47,30.17,17,6,17,0.00
2013-1-19,66.1,49.3,34.2,38.4,32.7,27.5,80,55,36,30.18,30.06,17,6,17,0.00
2013-1-20,66.4,46.6,29.3,37.2,29.0,18.8,86,52,32,30.25,30.10,16,5,16,0.00
2013-1-21,43.2,29.6,21.2,19.2,15.3,12.6,75,57,34,30.37,30.24,12,4,12,0.00
2013-1-22,51.1,32.4,20.3,27.8,20.6,14.0,80,63,40,30.29,30.17,13,3,13,0.00
2013-1-23,66.1,44.4,26.5,44.7,33.7,20.3,87,68,44,30.25,30.12,12,2,12,0.00
2013-1-24,43.6,38.5,35.6,33.9,24.1,18.6,92,57,45,30.29,30.08,15,7,16,0.00
2013-1-25,53.5,38.2,31.0,35.1,30.6,27.5,94,76,46,30.23,30.07,9,2,9,0.00
2013-1-26,63.7,46.3,32.8,29.0,25.6,19.9,81,48,22,30.24,30.10,16,6,16,0.00
2013-1-27,59.9,53.7,45.7,55.8,48.0,28.4,89,81,48,30.11,29.91,24,11,24,0.00
2013-1-28,74.0,66.4,59.9,61.8,60.0,55.6,87,80,65,29.97,29.81,24,11,24,0.00
2013-1-29,68.6,59.4,44.3,62.3,55.4,42.6,96,87,77,29.81,29.48,26,10,26,1.66
2013-1-30,44.6,32.0,20.7,43.3,27.6,17.5,96,84,73,30.04,29.52,22,7,22,0.01
2013-1-31,49.5,29.1,18.0,31.7,20.7,8.5,93,72,47,30.40,29.98,14,4,16,0.02